When you browse on this site, cookies collect data to enhance your experience and personalize the content and advertising you see.
Visit our Privacy Policy to learn more. By continuing to use the site, you agree to this use of cookies and data.
  • In Latvia
  • List of Countries
  • For 7 days
  • Water Temperature
  • Weather Map
  • Weather Widgets
  • user-avatar
    Login

    Hourly Weather Giumri

    Today, 20 January, Monday

    Time Temperature Precipitation Wind Pressure Humidity
    00:00 -8°C° 0 mm 0 mps 633 mmHg 84%
    01:00 -8°C° 0 mm 0 mps 633 mmHg 85%
    02:00 -8°C° 0 mm 0 mps 633 mmHg 86%
    03:00 -8°C° 0 mm 0 mps 633 mmHg 89%
    04:00 -9°C° 0 mm 0 mps 633 mmHg 89%
    05:00 -9°C° 0 mm 0 mps 633 mmHg 90%
    06:00 -9°C° 0 mm 0 mps 633 mmHg 91%
    07:00 -9°C° 0 mm 0 mps 634 mmHg 89%
    08:00 -8°C° 0 mm 1 mps 634 mmHg 88%
    09:00 -7°C° 0 mm 0 mps 634 mmHg 87%
    10:00 -6°C° 0 mm 1 mps 634 mmHg 85%
    11:00 -4°C° 0 mm 1 mps 634 mmHg 82%
    12:00 -3°C° 0 mm 1 mps 634 mmHg 80%
    13:00 -3°C° 0 mm 1 mps 634 mmHg 79%
    14:00 -3°C° 0 mm 1 mps 634 mmHg 79%
    15:00 -3°C° 0 mm 1 mps 634 mmHg 78%
    16:00 -4°C° 0 mm 1 mps 634 mmHg 80%
    17:00 -6°C° 0 mm 1 mps 634 mmHg 81%
    18:00 -7°C° 0 mm 1 mps 633 mmHg 83%
    19:00 -7°C° 0 mm 1 mps 634 mmHg 81%
    20:00 -7°C° 0 mm 1 mps 634 mmHg 80%
    21:00 -8°C° 0 mm 1 mps 634 mmHg 79%
    22:00 -8°C° 0 mm 1 mps 634 mmHg 79%
    23:00 -8°C° 0 mm 1 mps 634 mmHg 79%

    Tomorrow, 21 January, Tuesday

    Time Temperature Precipitation Wind Pressure Humidity
    00:00 -8°C° 0 mm 1 mps 634 mmHg 79%
    01:00 -8°C° 0 mm 1 mps 634 mmHg 79%
    02:00 -9°C° 0 mm 1 mps 634 mmHg 78%
    03:00 -9°C° 0 mm 1 mps 633 mmHg 78%
    04:00 -9°C° 0 mm 1 mps 633 mmHg 79%
    05:00 -9°C° 0 mm 1 mps 633 mmHg 79%
    06:00 -10°C° 0 mm 1 mps 633 mmHg 79%
    07:00 -9°C° 0 mm 1 mps 633 mmHg 78%
    08:00 -8°C° 0 mm 1 mps 633 mmHg 76%
    09:00 -8°C° 0 mm 1 mps 634 mmHg 75%
    10:00 -7°C° 0 mm 2 mps 634 mmHg 73%
    11:00 -6°C° 0 mm 2 mps 634 mmHg 70%
    12:00 -5°C° 0 mm 2 mps 634 mmHg 68%
    13:00 -4°C° 0 mm 2 mps 634 mmHg 69%
    14:00 -4°C° 0 mm 2 mps 634 mmHg 69%
    15:00 -2°C° 0 mm 1 mps 634 mmHg 70%
    16:00 -3°C° 0 mm 1 mps 634 mmHg 72%
    17:00 -4°C° 0 mm 1 mps 634 mmHg 74%
    18:00 -7°C° 0 mm 1 mps 634 mmHg 76%
    19:00 -7°C° 0 mm 1 mps 634 mmHg 76%
    20:00 -7°C° 0 mm 1 mps 634 mmHg 76%
    21:00 -9°C° 0 mm 2 mps 635 mmHg 77%
    22:00 -8°C° 0 mm 1 mps 634 mmHg 77%
    23:00 -8°C° 0 mm 1 mps 634 mmHg 78%

    Day after tomorrow, 22 January, Wednesday

    Time Temperature Precipitation Wind Pressure Humidity
    00:00 -9°C° 0 mm 1 mps 634 mmHg 78%
    01:00 -9°C° 0 mm 1 mps 634 mmHg 79%
    02:00 -10°C° 0 mm 1 mps 634 mmHg 79%
    03:00 -10°C° 0 mm 1 mps 634 mmHg 80%
    04:00 -10°C° 0 mm 1 mps 634 mmHg 80%
    05:00 -11°C° 0 mm 1 mps 634 mmHg 79%
    06:00 -11°C° 0 mm 1 mps 633 mmHg 79%
    07:00 -11°C° 0 mm 1 mps 634 mmHg 78%
    08:00 -10°C° 0 mm 1 mps 634 mmHg 77%
    09:00 -10°C° 0 mm 1 mps 634 mmHg 75%
    10:00 -8°C° 0 mm 1 mps 634 mmHg 73%
    11:00 -8°C° 0 mm 2 mps 634 mmHg 70%
    12:00 -7°C° 0 mm 2 mps 634 mmHg 67%
    13:00 -7°C° 0 mm 2 mps 633 mmHg 67%
    14:00 -6°C° 0 mm 2 mps 633 mmHg 67%
    15:00 -6°C° 0 mm 2 mps 632 mmHg 67%
    16:00 -7°C° 0 mm 2 mps 632 mmHg 68%
    17:00 -8°C° 0 mm 2 mps 632 mmHg 70%
    18:00 -7°C° 0 mm 1 mps 632 mmHg 72%
    19:00 -8°C° 0 mm 1 mps 632 mmHg 73%
    20:00 -9°C° 0 mm 1 mps 631 mmHg 74%
    21:00 -9°C° 0 mm 1 mps 631 mmHg 75%
    22:00 -9°C° 0 mm 1 mps 631 mmHg 76%
    23:00 -10°C° 0 mm 1 mps 630 mmHg 77%

    23 January, Thursday

    Time Temperature Precipitation Wind Pressure Humidity
    00:00 -10°C° 0 mm 1 mps 630 mmHg 78%
    01:00 -10°C° 0 mm 1 mps 629 mmHg 78%
    02:00 -11°C° 0 mm 1 mps 629 mmHg 79%
    03:00 -11°C° 0 mm 1 mps 628 mmHg 79%
    04:00 -11°C° 0 mm 1 mps 628 mmHg 80%
    05:00 -11°C° 0 mm 1 mps 627 mmHg 81%
    06:00 -12°C° 0 mm 1 mps 626 mmHg 81%
    07:00 -11°C° 0 mm 1 mps 626 mmHg 80%
    08:00 -10°C° 0 mm 1 mps 627 mmHg 79%
    09:00 -10°C° 0 mm 1 mps 627 mmHg 78%
    10:00 -9°C° 0 mm 1 mps 626 mmHg 76%
    11:00 -8°C° 0 mm 2 mps 626 mmHg 73%
    12:00 -7°C° 0 mm 2 mps 626 mmHg 71%
    13:00 -7°C° 0 mm 2 mps 625 mmHg 72%
    14:00 -7°C° 0 mm 2 mps 625 mmHg 73%
    15:00 -7°C° 0 mm 2 mps 625 mmHg 74%
    16:00 -7°C° 0.1 mm 2 mps 625 mmHg 80%
    17:00 -7°C° 0.1 mm 1 mps 625 mmHg 87%
    18:00 -8°C° 0.1 mm 1 mps 625 mmHg 93%
    19:00 -8°C° 0.1 mm 1 mps 625 mmHg 93%
    20:00 -8°C° 0.1 mm 1 mps 625 mmHg 93%
    21:00 -8°C° 0.1 mm 1 mps 625 mmHg 93%
    22:00 -8°C° 0.1 mm 1 mps 626 mmHg 93%
    23:00 -8°C° 0.1 mm 1 mps 626 mmHg 93%

    24 January, Friday

    Time Temperature Precipitation Wind Pressure Humidity
    00:00 -8°C° 0.1 mm 1 mps 626 mmHg 93%
    01:00 -8°C° 0.1 mm 1 mps 626 mmHg 92%
    02:00 -9°C° 0.1 mm 1 mps 626 mmHg 91%
    03:00 -9°C° 0.1 mm 1 mps 626 mmHg 90%
    04:00 -9°C° 0 mm 1 mps 626 mmHg 88%
    05:00 -10°C° 0 mm 1 mps 626 mmHg 86%
    06:00 -10°C° 0 mm 1 mps 627 mmHg 84%
    07:00 -10°C° 0 mm 1 mps 627 mmHg 83%
    08:00 -10°C° 0 mm 1 mps 628 mmHg 81%
    09:00 -9°C° 0 mm 1 mps 628 mmHg 79%
    10:00 -8°C° 0 mm 1 mps 628 mmHg 74%
    11:00 -9°C° 0 mm 2 mps 629 mmHg 69%
    12:00 -8°C° 0 mm 2 mps 629 mmHg 64%
    13:00 -7°C° 0 mm 2 mps 629 mmHg 63%
    14:00 -7°C° 0 mm 2 mps 629 mmHg 62%
    15:00 -7°C° 0 mm 2 mps 629 mmHg 61%
    16:00 -8°C° 0 mm 2 mps 630 mmHg 64%
    17:00 -12°C° 0 mm 3 mps 630 mmHg 67%
    18:00 -13°C° 0 mm 3 mps 631 mmHg 70%
    19:00 -14°C° 0 mm 3 mps 631 mmHg 70%
    20:00 -14°C° 0 mm 3 mps 632 mmHg 69%
    21:00 -16°C° 0 mm 4 mps 633 mmHg 68%
    22:00 -16°C° 0 mm 3 mps 633 mmHg 70%
    23:00 -16°C° 0 mm 3 mps 634 mmHg 72%

    25 January, Saturday

    Time Temperature Precipitation Wind Pressure Humidity
    00:00 -16°C° 0 mm 2 mps 634 mmHg 74%
    01:00 -16°C° 0 mm 2 mps 634 mmHg 75%
    02:00 -16°C° 0 mm 2 mps 635 mmHg 76%
    03:00 -17°C° 0 mm 2 mps 635 mmHg 77%
    04:00 -17°C° 0 mm 2 mps 635 mmHg 76%
    05:00 -17°C° 0 mm 2 mps 635 mmHg 75%
    06:00 -18°C° 0 mm 2 mps 635 mmHg 74%
    07:00 -17°C° 0 mm 2 mps 636 mmHg 71%
    08:00 -16°C° 0 mm 2 mps 636 mmHg 69%
    09:00 -14°C° 0 mm 1 mps 637 mmHg 67%
    10:00 -12°C° 0 mm 1 mps 637 mmHg 64%
    11:00 -11°C° 0 mm 1 mps 637 mmHg 62%
    12:00 -9°C° 0 mm 1 mps 638 mmHg 60%
    13:00 -9°C° 0 mm 1 mps 638 mmHg 61%
    14:00 -8°C° 0 mm 1 mps 638 mmHg 62%
    15:00 -8°C° 0 mm 1 mps 637 mmHg 63%
    16:00 -9°C° 0 mm 1 mps 637 mmHg 64%
    17:00 -10°C° 0 mm 1 mps 637 mmHg 64%
    18:00 -11°C° 0 mm 1 mps 637 mmHg 64%
    19:00 -11°C° 0 mm 1 mps 637 mmHg 64%
    20:00 -12°C° 0 mm 1 mps 637 mmHg 63%
    21:00 -12°C° 0 mm 1 mps 637 mmHg 62%
    22:00 -12°C° 0 mm 1 mps 637 mmHg 63%
    23:00 -12°C° 0 mm 1 mps 637 mmHg 63%
    Show more